Regional Weather Roundup
Issued by NWS

Home | Current Version | Previous Version | Text Only | Print | Product List | Glossary On
Versions: 1 2 3 4 5 6 7 8 9 10 11 12 13 14 15 16 17 18 19 20 21 22 23 24 25 26 27 28 29 30 31 32 33 34 35 36 37 38 39 40 41 42 43 44 45 46 47 48 49 50
000
ASUS43 KMPX 032110
RWRMN
WEATHER ROUNDUP FOR MINNESOTA
NATIONAL WEATHER SERVICE TWIN CITIES/CHANHASSEN MN
300 PM CST TUE MAR 03 2015


NOTE: "FAIR" INDICATES FEW OR NO CLOUDS BELOW 12,000 FEET WITH NO
SIGNIFICANT WEATHER AND/OR OBSTRUCTIONS TO VISIBILITY. N/A MEANS
CURRENT SKY AND/OR WEATHER CONDITIONS ARE NOT AVAILABLE.

MNZ060>063-068>070-032200-
   Twin Cities Metro

CITY           SKY/WX    TMP DP  RH WIND       PRES   REMARKS
TWIN CITIES    MOSUNNY   27  15  61 NW21G35   29.72R WCI  13
ST PAUL        CLOUDY    28  19  69 NW18G25   29.72R WCI  15
CRYSTAL        MIX PCPN  26  13  57 NW24G32   29.71R WCI  11
BLAINE         MOSUNNY   28  16  59 NW20G28   29.70R WCI  15
LAKEVILLE      CLOUDY    27  18  69 NW20      29.70R WCI  13
EDEN PRAIRIE   MOSUNNY   27  13  55 NW18G25   29.72R WCI  14
SOUTH ST PAUL  CLOUDY    28  18  66 NW16G24   29.71R WCI  16
LAKE ELMO      CLOUDY    28  21  74 NW15G22   29.70R WCI  17
$$
MNZ001>005-007-008-013>017-022>024-027-028-032200-
   Northwest Minnesota

CITY           SKY/WX    TMP DP  RH WIND       PRES   REMARKS
BEMIDJI        PTSUNNY   10   0  63 W21G30    29.75R HAZE    WCI  -9
HALLOCK        PTSUNNY    7  -2  66 W24G31    29.86S WCI -15
ROSEAU         MOSUNNY    9  -4  56 W18G26    29.78S WCI -10
WARROAD        SUNNY      9  -8  47 W22G29    29.75S WCI -11
THIEF RVR FALL CLOUDY     9   5  85 W18G29    29.82S VSB 3/4 WCI -10
CROOKSTON      SUNNY     10   0  61 NW29      29.89R WCI -11
FOSSTON        MOSUNNY   10   0  61 W20G26    29.81S WCI  -8
DETROIT LAKES  PTSUNNY   12   5  73 NW25G32   29.83R HAZE    WCI  -8
MOORHEAD       MOSUNNY   14   3  62 NW21G29   29.91S WCI  -4
PARK RAPIDS    PTSUNNY   13   3  64 NW23      29.75R WCI  -6
MAHNOMEN       FAIR       9   2  73 NW21G28   29.83R HAZE    WCI -11
$$
MNZ006-009>011-018-025>026-032200-
   North Central Minnesota

CITY           SKY/WX    TMP DP  RH WIND       PRES   REMARKS
BAUDETTE       PTSUNNY   10  -5  50 NW23G30   29.70R WCI -10
FLAG ISLAND    MOSUNNY    7  -6  56 NW24G31   29.71R WCI -15
INTL FALLS     MOSUNNY   13  -3  49 W23G31    29.66R WCI  -6
WASKISH        MOSUNNY   12   3  67 W17G25    29.73S WCI  -5
BIG FORK       SUNNY     16   0  48 W12G23    29.67R HAZE    WCI   3
LONGVILLE      MOSUNNY   18   1  49 W15G24    29.73R WCI   3
GRAND RAPIDS   MOSUNNY   16   1  53 NW20G33   29.66R WCI  -1
CRANE LAKE     PTSUNNY   14   0  52 NW15G25   29.63R WCI  -1
ORR            CLOUDY    16   1  53 NW16G30   29.60R WCI   0
COOK           PTSUNNY   18   7  62 W22G29    29.61S HAZE    WCI   0
WALKER         FAIR      13  -1  53 W14G24    29.73R HAZE    WCI  -2
$$
MNZ012-019>021-037-032200-
   Northeast Minnesota

CITY           SKY/WX    TMP DP  RH WIND       PRES   REMARKS
DULUTH         LGT SNOW  22  10  60 W20G35    29.57R BLWGSNOWWCI   7
ELY            CLOUDY    18   7  62 W17G26    29.55R WCI   2
HIBBING        PTSUNNY   18   6  59 NW16G25   29.62R WCI   3
EVELETH        MIX PCPN  19  10  68 NW15G28   29.61R WCI   5
DULUTH HARBOR  PTSUNNY   25  16  68 W26       29.63R WCI   9
TWO HARBORS    LGT SNOW  28  18  64 NW12G24   29.53R WCI  18
SILVER BAY     LGT SNOW  28  16  59 W13G22    29.51R WCI  18
GRAND MARAIS     N/A     29  21  72 W9        29.47S WCI  20
G MARAIS ARPRT LGT SNOW  21  12  68 W15G32    29.41R WCI   8
$$
MNZ029>031-032-039>041-046>048-054>057-064-032200-
   West Central Minnesota

CITY           SKY/WX    TMP DP  RH WIND       PRES   REMARKS
FERGUS FALLS   CLOUDY    12   3  67 NW24G33   29.90R HAZE    WCI  -8
WHEATON        MOSUNNY   10   3  72 NW21G29   29.94R WCI  -9
MORRIS         HAZE      14   7  73 NW30      29.88R VSB 1   WCI  -7
ALEXANDRIA     CLOUDY    12   4  70 NW22G29   29.82R HAZE    WCI  -7
ELBOW LAKE     PTSUNNY   12   5  75 NW24G32   29.87R HAZE    WCI  -8
WADENA         MOSUNNY   12   1  62 NW20G25   29.79R WCI  -6
GLENWOOD       CLOUDY    14   9  79 W31G39    29.82R HAZE    WCI  -7
APPLETON       PTSUNNY   16   7  67 NW26G35   29.91R HAZE    WCI  -3
BENSON         LGT SNOW  16   9  73 N28G38    29.87R WCI  -4
ORTONVILLE     PTSUNNY   12   3  67 NW22G29   29.91S HAZE    WCI  -7
MADISON        CLOUDY    16   9  73 NW28G33   29.92S HAZE    WCI  -4
WILLMAR        LGT SNOW  16  10  79 NW26      29.86R VSB 3/4 WCI  -3
$$
MNZ033>034-036-042>043-049>051-058-059-032200-
   Central Minnesota

CITY           SKY/WX    TMP DP  RH WIND       PRES   REMARKS
ST CLOUD       SUNNY     20   8  60 NW24G36   29.75R HAZE    WCI   3
SAUK CENTRE    FAIR      15   7  68 W24G30    29.80R HAZE    WCI  -3
PAYNESVILLE    CLOUDY    14   7  74 W18G30    29.81R HAZE    WCI  -3
AITKIN         SUNNY     25   3  39 NW9G21    29.68R WCI  15
PINE RIVER     SUNNY     18   3  53 W13G23    29.77R WCI   4
BRAINERD       MIX PCPN  19   6  57 NW22G31   29.73R WCI   2
STAPLES        MOSUNNY   12   3  67 NW21G26   29.77R WCI  -6
LITTLE FALLS   LGT SNOW  19   7  58 NW16G25   29.76R VSB 1   WCI   5
LITCHFIELD     PTSUNNY   19  12  73 NW17G30   29.80R WCI   4
BUFFALO        SUNNY     24   9  53 W17G28    29.76R HAZE    WCI  10
MAPLE LAKE     MOSUNNY   24  14  64 W20       29.76R WCI  10
$$
MNZ037-044-045-052-053-032200-
   East Central Minnesota

CITY           SKY/WX    TMP DP  RH WIND       PRES   REMARKS
PRINCETON      SUNNY     25  10  54 W24G33    29.72R WCI   9
MORA           LGT SNOW  27  10  50 NW18G24   29.70R VSB 1   WCI  13
CAMBRIDGE      SUNNY     27  12  54 W14G23    29.69R WCI  15
RUSH CITY      SUNNY     27  11  49 NW14G22   29.68R WCI  16
MOOSE LAKE     SUNNY     25   7  46 W17G26    29.64R WCI  11
HINCKLEY       FAIR      28  10  47 NW16G22   29.66R WCI  17
CLOQUET        LGT SNOW  21   9  58 NW15G25   29.60R WCI   8
MCGREGOR       SUNNY     23   9  54 W14G25    29.68R WCI  11
$$
MNZ071>073-080-081-089-090-097-098-032200-
   Southwest Minnesota

CITY           SKY/WX    TMP DP  RH WIND       PRES   REMARKS
MONTEVIDEO     CLOUDY    18  16  93 N22G29    29.91R WCI   0
GRANITE FALLS  MOSUNNY   16   8  70 W26G38    29.91R WCI  -3
CANBY          PTSUNNY   16   6  66 NW23G33   29.92S HAZE    WCI  -2
MARSHALL       MOSUNNY   16   5  62 NW32      29.89S WCI  -5
REDWOOD FALLS  FLURRIES  17   7  64 NW23G36   29.86R WCI  -1
OLIVIA         LGT SNOW  18  12  79 NW25G38   29.84R WCI  -1
PIPESTONE      CLOUDY    14   9  79 NW23G30   29.87S HAZE    WCI  -5
WINDOM         LGT SNOW  18  10  73 NW31G39   29.84R WCI  -2
WORTHINGTON    CLOUDY    19  10  68 NW26G32   29.86R WCI   1
JACKSON        LGT SNOW  21  14  73 NW25G33   29.83R WCI   4
TRACY            N/A     18  11  73 NW25G33   29.87S HAZE    WCI   0
SLAYTON        PTSUNNY   17   9  72 NW25G32   29.86R HAZE    WCI  -2
$$
MNZ065>067-074>077-082>085-091>093-032200-
   South Central Minnesota

CITY           SKY/WX    TMP DP  RH WIND       PRES   REMARKS
MANKATO        CLOUDY   N/A N/A N/A NW30G40   29.76R
NEW ULM        LGT SNOW  19  12  73 NW28G38   29.81R VSB 1   WCI   1
ST JAMES       LGT SNOW  21  18  86 NW22G32   29.84R WCI   5
FAIRMONT       CLOUDY    23  12  63 W28       29.80R WCI   6
GLENCOE        PTSUNNY   23  16  74 NW25G33   29.77R HAZE    WCI   7
FARIBAULT      CLOUDY    27  18  69 W17G28    29.73R WCI  14
OWATONNA       CLOUDY    25  19  80 NW24G31   29.72R HAZE    WCI   9
WASECA         CLOUDY    23  19  86 NW23G31   29.74R HAZE    WCI   7
ALBERT LEA     CLOUDY    25  19  80 NW16G26   29.73R HAZE    WCI  12
$$
MNZ078>079-086>088-094>096-032200-
   Southeast Minnesota

CITY           SKY/WX    TMP DP  RH WIND       PRES   REMARKS
ROCHESTER      CLOUDY    27  22  81 NW20      29.67R WCI  13
RED WING       CLOUDY    30  19  64 NW14G21   29.68R WCI  20
STANTON        CLOUDY    29  22  76 NW17G24   29.70R WCI  17
DODGE CENTER   CLOUDY    27  23  86 NW18      29.68R WCI  13
WINONA         CLOUDY    32  25  74 NW17G24   29.68R WCI  21
AUSTIN         CLOUDY    27  21  80 NW16G25   29.71R WCI  14
PRESTON        CLOUDY    27  22  83 NW20      29.67S WCI  13
$$
ABBREVIATIONS USED IN REMARKS
   TC - TEMPERATURES IN CELSIUS
  WCI - WIND CHILL INDEX
   HX - HEAT INDEX
  VSB - VISIBILITY
$$



USA.gov is the U.S. government's official web portal to all federal, state and local government web resources and services.